Yeovilton, United Kingdom

3:20 PM BST on April 25, 2018 (GMT +0100)
Yeovil Radar Navy

Weather History for EGDY - May, 2014

Change the Weather History Date:

Thursday, May 8, 2014

  Actual Average Record
Temperature  
Mean Temperature 56 °F -  
Max Temperature 62 °F 61 °F 73 °F (2008)
Min Temperature 50 °F 45 °F 37 °F (2001)
Degree Days  
Heating Degree Days 9    
Growing Degree Days 6 (Base 50)    
Moisture  
Dew Point 51 °F    
Average Humidity 81    
Maximum Humidity 94    
Minimum Humidity 63    
Precipitation  
Precipitation 0.16 in - - ()
Sea Level Pressure  
Sea Level Pressure 29.80 in    
Wind  
Wind Speed 11 mph ()    
Max Wind Speed 22 mph    
Max Gust Speed -    
Visibility 7.3 miles    
Events Rain    
Averages and records for this station are not official NWS values.
T = Trace of Precipitation, MM = Missing Value Source: Averaged Metar Reports

Daily Weather History Graph

Daily Weather History Graph

Search for Another Location

Airport or City:

Astronomy

May. 08, 2014 Rise Set
Actual Time 5:31 AM BST 8:43 PM BST
Civil Twilight 4:52 AM BST 9:22 PM BST
Nautical Twilight 4:01 AM BST 10:14 PM BST
Astronomical Twilight 2:54 AM BST 11:22 PM BST
Moon 1:49 PM BST (5/8) 2:39 AM BST (5/8)
Length of Visible Light 16h 29m
Length of Day
15h 11m
Waxing Gibbous, 62% of the Moon is Illuminated
May 8
Waxing Gibbous
May 14
Full
May 21
Last Quarter
May 28
New
Jun 5
First Quarter

Hourly Weather History & Observations

Time (BST) Temp. Dew Point Humidity Pressure Visibility Wind Dir Wind Speed Gust Speed Precip Events Conditions
12:00 AM 51 °F 45 °F 72% 29.92 in 9 mi WSW 9.2 mph - - Rain Light Rain Showers
12:50 AM 51.8 °F 42.8 °F 71% 29.89 in 6.2 mi WSW 10.4 mph - N/A   Mostly Cloudy
1:00 AM 52 °F 43 °F 63% 29.91 in 12 mi WSW 10.4 mph - -   Partly Cloudy
1:50 AM 51.8 °F 44.6 °F 76% 29.89 in 6.2 mi WSW 9.2 mph - N/A   Mostly Cloudy
2:00 AM 52 °F 44 °F 68% 29.90 in 12 mi WSW 9.2 mph - -   Mostly Cloudy
2:50 AM 51.8 °F 44.6 °F 76% 29.89 in 6.2 mi SW 6.9 mph - N/A   Mostly Cloudy
3:00 AM 52 °F 45 °F 70% 29.90 in 12 mi SW 6.9 mph - -   Mostly Cloudy
3:50 AM 51.8 °F 46.4 °F 82% 29.86 in 6.2 mi SSW 6.9 mph - N/A   Mostly Cloudy
4:00 AM 51 °F 47 °F 80% 29.87 in 12 mi SSW 6.9 mph - -   Mostly Cloudy
4:56 AM 51.8 °F 48.2 °F 88% 29.83 in 6.2 mi South 9.2 mph - N/A   Mostly Cloudy
5:00 AM 52 °F 48 °F 80% 29.85 in 31 mi South 9.2 mph - - Rain Rain
5:50 AM 51.8 °F 50.0 °F 94% 29.83 in 2.5 mi South 10.4 mph - N/A   Light Drizzle
6:00 AM 52 °F 49 °F 88% 29.83 in 2 mi South 10.4 mph - - Rain Light Drizzle
6:50 AM 51.8 °F 50.0 °F 94% 29.80 in 2.5 mi South 11.5 mph - N/A Rain Light Rain
7:00 AM 53 °F 51 °F 88% 29.82 in 2 mi South 11.5 mph - - Rain Light Rain
7:50 AM 53.6 °F 51.8 °F 94% 29.80 in 5.0 mi SSW 12.7 mph - N/A Rain Rain
8:00 AM 53 °F 51 °F 92% 29.80 in 5 mi SSW 12.7 mph - - Rain Rain
8:50 AM 53.6 °F 51.8 °F 94% 29.74 in 2.5 mi SSW 16.1 mph - N/A Rain Rain
9:00 AM 54 °F 52 °F 92% 29.77 in 2 mi SSW 16.1 mph - - Rain Rain
9:50 AM 55.4 °F 53.6 °F 94% 29.74 in 6.2 mi SSW 12.7 mph - N/A   Mostly Cloudy
10:00 AM 56 °F 54 °F 90% 29.75 in 9 mi SSW 12.7 mph - - Rain Light Rain
10:50 AM 57.2 °F 55.4 °F 94% 29.74 in 4.3 mi SW 10.4 mph - N/A Rain Light Rain
11:00 AM 57 °F 54 °F 88% 29.74 in 4 mi SW 10.4 mph - - Rain Light Rain
11:50 AM 57.2 °F 55.4 °F 94% 29.71 in 3.7 mi SW 10.4 mph - N/A Rain Light Rain
12:00 PM 58 °F 56 °F 89% 29.74 in 4 mi SW 10.4 mph - - Rain Light Rain
12:50 PM 60.8 °F 55.4 °F 82% 29.71 in 6.2 mi WSW 17.3 mph - N/A   Overcast
1:00 PM 60 °F 55 °F 80% 29.73 in 9 mi WSW 17.3 mph - - Rain Light Rain
1:50 PM 62.6 °F 55.4 °F 77% 29.71 in 6.2 mi WSW 17.3 mph - N/A   Overcast
2:00 PM 62 °F 56 °F 75% 29.73 in 9 mi WSW 17.3 mph - -   Overcast
2:50 PM 60.8 °F 55.4 °F 82% 29.71 in 6.2 mi WSW 13.8 mph - N/A   Overcast
3:00 PM 61 °F 55 °F 76% 29.72 in 7 mi WSW 13.8 mph - -   Overcast
3:50 PM 60.8 °F 55.4 °F 82% 29.71 in 6.2 mi WSW 18.4 mph - N/A Rain Light Rain
4:00 PM 61 °F 55 °F 74% 29.72 in 12 mi WSW 18.4 mph - - Rain Light Rain
4:50 PM 60.8 °F 53.6 °F 77% 29.74 in 6.2 mi West 19.6 mph - N/A   Mostly Cloudy
5:00 PM 60 °F 53 °F 72% 29.75 in 12 mi West 19.6 mph - - Rain Light Rain
5:50 PM 59.0 °F 53.6 °F 82% 29.77 in 6.2 mi West 21.9 mph - N/A   Mostly Cloudy
6:00 PM 59 °F 53 °F 73% 29.78 in 12 mi West 21.9 mph - -   Mostly Cloudy
6:50 PM 59.0 °F 51.8 °F 77% 29.77 in 6.2 mi West 18.4 mph - N/A   Mostly Cloudy
7:00 PM 58 °F 51 °F 72% 29.78 in 9 mi West 18.4 mph - -   Partly Cloudy
7:50 PM 55.4 °F 50.0 °F 82% 29.77 in 6.2 mi West 20.7 mph - N/A   Mostly Cloudy
8:00 PM 56 °F 50 °F 75% 29.80 in 25 mi West 20.7 mph - -   Mostly Cloudy
8:50 PM 53.6 °F 48.2 °F 82% 29.80 in 6.2 mi West 15.0 mph - N/A   Scattered Clouds
9:00 PM 54 °F 49 °F 77% 29.82 in 14 mi West 15.0 mph - -   Partly Cloudy
9:50 PM 53.6 °F 48.2 °F 82% 29.83 in 6.2 mi WSW 6.9 mph - N/A   Mostly Cloudy
10:00 PM 53 °F 48 °F 79% 29.83 in 16 mi WSW 6.9 mph - -   Partly Cloudy
10:50 PM 53.6 °F 48.2 °F 82% 29.83 in 6.2 mi WSW 9.2 mph - N/A   Overcast
11:00 PM 54 °F 48 °F 74% 29.85 in 17 mi WSW 9.2 mph - -   Overcast
11:50 PM 53.6 °F 48.2 °F 82% 29.86 in 6.2 mi WSW 15.0 mph - N/A   Overcast